FW8702 Weather Reports


time (UTC)temp
F
wind
direction
speed
knots
gust
knots
rain 1hr
in
rain 24hr
in
rain mn
in
humidity
%
barometer
mb
20220629030014 66 5 0.0 3.5 0.00 0.14 0.00 86 1013.3
20220629024548 66 9 1.7 4.3 0.00 0.14 0.00 87 1013.4
20220629024518 66 9 0.9 4.3 0.00 0.14 0.00 87 1013.4
20220629023025 66 5 3.5 5.2 0.00 0.14 0.00 88 1013.5
20220629021552 67 5 0.0 4.3 0.00 0.14 0.00 87 1013.6
20220629020101 66 5 0.0 2.6 0.00 0.14 0.00 88 1013.7
20220629014529 66 5 0.9 2.6 0.00 0.14 0.00 88 1014.0
20220629013050 66 5 0.0 1.7 0.00 0.14 0.00 88 1014.0
20220629011503 66 5 0.0 1.7 0.00 0.14 0.00 88 1014.0
20220629010055 66 5 0.0 1.7 0.00 0.14 0.00 88 1014.1
20220629004544 66 5 0.0 7.8 0.00 0.14 0.00 87 1014.2
20220629003040 67 315 0.9 3.5 0.00 0.14 0.00 87 1014.4
20220629001510 67 26 1.7 4.3 0.00 0.14 0.00 85 1014.6
20220629000048 69 5 2.6 5.2 0.00 0.14 0.00 83 1014.9
20220628234534 71 123 0.0 2.6 0.00 0.14 0.00 78 1015.0
20220628233010 71 123 0.0 3.5 0.00 0.14 0.00 76 1015.1
20220628231502 72 125 1.7 4.3 0.00 0.14 0.00 74 1015.0
20220628230015 72 105 3.5 6.1 0.00 0.14 0.00 73 1014.8
20220628224550 72 101 2.6 7.0 0.00 0.14 0.00 73 1014.7
20220628223006 72 59 5.2 10.4 0.00 0.14 0.00 73 1014.0
20220628221623 72 30 3.5 9.6 0.00 0.14 0.00 72 1013.8
20220628220047 72 333 2.6 7.8 0.00 0.14 0.00 73 1014.1
20220628214547 71 360 2.6 9.6 0.00 0.14 0.14 74 1013.7
20220628213058 71 355 2.6 5.2 0.00 0.14 0.14 75 1013.6
20220628211511 71 9 3.5 6.1 0.00 0.14 0.14 75 1013.7
20220628210040 72 360 4.3 7.0 0.00 0.14 0.14 73 1013.8
20220628204539 72 360 2.6 7.8 0.00 0.14 0.14 74 1013.6
20220628203046 72 355 0.9 5.2 0.00 0.14 0.14 75 1013.7
20220628201518 73 355 0.0 5.2 0.00 0.14 0.14 72 1013.9
20220628200051 73 332 1.7 4.3 0.00 0.14 0.14 71 1013.9
20220628194546 74 53 3.5 9.6 0.00 0.14 0.14 69 1013.6
20220628193056 74 39 5.2 9.6 0.00 0.14 0.14 69 1013.5
20220628191535 74 29 4.3 9.6 0.00 0.14 0.14 68 1013.4
20220628190048 73 56 4.3 8.7 0.00 0.14 0.14 68 1013.3
20220628184551 73 44 0.9 2.6 0.00 0.14 0.14 74 1013.3
20220628183016 74 44 1.7 3.5 0.00 0.14 0.14 71 1013.3
20220628181553 75 53 3.5 8.7 0.00 0.14 0.14 66 1013.3
20220628180011 75 46 3.5 8.7 0.00 0.14 0.14 66 1013.4
20220628174552 75 57 2.6 5.2 0.00 0.14 0.14 68 1013.5
20220628173047 75 13 3.5 6.1 0.00 0.14 0.14 70 1013.6
20220628173017 75 10 3.5 6.1 0.00 0.14 0.14 70 1013.6
20220628171515 75 5 1.7 5.2 0.00 0.14 0.14 68 1013.7
20220628170058 76 30 2.6 7.8 0.00 0.14 0.14 67 1013.6
20220628164541 76 330 2.6 8.7 0.00 0.14 0.14 66 1013.7
20220628163017 76 332 3.5 7.8 0.00 0.14 0.14 67 1014.0
20220628161553 76 348 1.7 7.8 0.00 0.14 0.14 67 1014.3
20220628160045 77 345 3.5 8.7 0.00 0.14 0.14 68 1014.3
20220628154526 77 334 2.6 8.7 0.00 0.14 0.14 65 1014.4
20220628153042 76 348 5.2 13.0 0.00 0.14 0.14 67 1014.7
20220628151513 76 292 2.6 7.8 0.00 0.14 0.14 71 1014.9
20220628150007 76 307 4.3 13.9 0.00 0.14 0.14 71 1015.1
20220628144517 75 14 3.5 7.0 0.00 0.14 0.14 74 1014.9
20220628143018 74 5 3.5 9.6 0.00 0.14 0.14 74 1015.2
20220628141512 74 291 3.5 9.6 0.00 0.14 0.14 75 1015.6
20220628140014 74 326 3.5 10.4 0.00 0.14 0.14 75 1015.6
20220628134502 73 38 2.6 5.2 0.00 0.14 0.14 78 1015.7
20220628133036 74 20 3.5 7.8 0.00 0.14 0.14 80 1015.9
20220628131548 75 109 0.9 3.5 0.00 0.14 0.14 77 1016.3
20220628130053 75 109 0.9 5.2 0.00 0.14 0.14 75 1016.5
20220628124547 75 5 0.9 9.6 0.00 0.14 0.14 78 1016.0
20220628123146 74 23 5.2 8.7 0.00 0.14 0.14 78 1016.1
20220628121544 73 44 0.9 3.5 0.00 0.14 0.14 77 1016.1
20220628120052 72 53 5.2 12.2 0.00 0.14 0.14 78 1016.1
20220628114542 72 9 7.0 13.0 0.00 0.14 0.14 78 1016.1
20220628113042 71 68 6.1 12.2 0.00 0.14 0.14 81 1016.3
20220628111540 70 39 6.1 13.0 0.00 0.14 0.14 82 1016.6
20220628110114 70 45 7.0 13.9 0.01 0.14 0.14 82 1016.7
20220628104542 70 60 7.0 11.3 0.01 0.14 0.14 80 1016.5
20220628103136 71 360 0.9 3.5 0.01 0.14 0.14 84 1016.5
20220628101539 71 78 6.1 11.3 0.01 0.14 0.14 77 1016.5
20220628100037 73 29 2.6 8.7 0.00 0.13 0.13 76 1016.5
20220628094532 73 103 5.2 8.7 0.00 0.13 0.13 77 1015.5
20220628093035 72 22 4.3 8.7 0.00 0.13 0.13 81 1014.9
20220628091504 72 289 0.9 3.5 0.00 0.13 0.13 82 1015.4
20220628090048 72 289 0.0 7.0 0.00 0.13 0.13 85 1015.5
20220628084608 72 325 0.9 3.5 0.00 0.13 0.13 84 1016.0
20220628083103 72 344 0.9 5.2 0.00 0.13 0.13 84 1016.3
20220628081507 71 303 1.7 4.3 0.00 0.13 0.13 87 1016.0
20220628080011 70 312 3.5 7.8 0.00 0.13 0.13 86 1015.7
20220628074548 71 17 6.1 12.2 0.00 0.13 0.13 84 1015.5
20220628073055 71 315 3.5 12.2 0.01 0.13 0.13 85 1016.6
20220628071554 72 246 0.9 3.5 0.02 0.13 0.13 86 1014.5
20220628070051 72 310 0.0 3.5 0.13 0.13 0.13 89 1014.3
20220628064558 71 310 0.9 4.3 0.13 0.13 0.13 88 1014.4
20220628063037 70 360 0.0 5.2 0.12 0.12 0.12 87 1014.8
20220628061542 72 330 6.1 10.4 0.11 0.11 0.11 83 1014.6
20220628060038 75 302 0.0 3.5 0.00 0.00 0.00 77 1015.0
20220628054545 74 40 1.7 4.3 0.00 0.00 0.00 75 1014.3
20220628053043 74 57 1.7 6.1 0.00 0.00 0.00 77 1014.7
20220628051558 74 39 0.9 3.5 0.00 0.00 0.00 76 1015.0
20220628050051 74 300 0.0 5.2 0.00 0.00 0.00 74 1014.8
20220628044536 75 325 0.0 7.8 0.00 0.00 0.00 74 1014.7
20220628043103 74 355 1.7 9.6 0.00 0.00 0.00 74 1014.7
20220628041551 73 351 0.9 3.5 0.00 0.00 0.00 77 1014.8
20220628040045 73 305 0.9 2.6 0.00 0.00 0.00 76 1014.6
20220628034536 73 305 1.7 3.5 0.00 0.00 0.00 76 1014.6
20220628033052 73 279 0.9 3.5 0.00 0.00 0.00 77 1014.7
20220628031552 73 279 0.9 7.0 0.00 0.00 0.00 76 1014.4